Change the Weather History Date:

Sunday, November 25, 2012

  Actual Average Record
Temperature  
Mean Temperature 54 °F -  
Max Temperature 64 °F 56 °F 68 °F (2006)
Min Temperature 44 °F 37 °F 30 °F (1998)
Degree Days  
Heating Degree Days 11    
Growing Degree Days 4 (Base 50)    
Moisture  
Dew Point 50 °F    
Average Humidity 88    
Maximum Humidity 100    
Minimum Humidity 52    
Precipitation  
Precipitation 0.00 in 0.07 in - ()
Sea Level Pressure  
Sea Level Pressure 30.07 in    
Wind  
Wind Speed 3 mph ()    
Max Wind Speed 13 mph    
Max Gust Speed -    
Visibility 4.2 miles    
Events      
Averages and records for this station are not official NWS values.
T = Trace of Precipitation, MM = Missing Value Source: Averaged Metar Reports

Daily Weather History Graph

Daily Weather History Graph

Search for Another Location

Airport or City:

Trip Planner

Search our weather history database for the weather conditions in past years. The results will help you decide how hot, cold, wet, or windy it might be!

Date:

Astronomy

Nov. 25, 2012 Rise Set
Actual Time 7:50 AM CET 5:20 PM CET
Civil Twilight 7:20 AM CET 5:51 PM CET
Nautical Twilight 6:45 AM CET 6:26 PM CET
Astronomical Twilight 6:12 AM CET 6:59 PM CET
Moon 3:31 PM CET (11/25) 4:48 AM CET (11/25)
Length of Visible Light 10h 31m
Length of Day
9h 30m
Waxing Gibbous, 91% of the Moon is Illuminated
Nov 25
Waxing Gibbous
Nov 28
Full
Dec 6
Last Quarter
Dec 13
New
Dec 20
First Quarter

Hourly Weather History & Observations

Time (CET) Temp. Dew Point Humidity Pressure Visibility Wind Dir Wind Speed Gust Speed Precip Events Conditions
12:00 AM 53.6 °F 50.0 °F 88% 30.06 in 6.2 mi SSW 4.6 mph - N/A   Partly Cloudy
12:30 AM 53.6 °F 50.0 °F 88% 30.09 in 6.2 mi South 6.9 mph - N/A   Partly Cloudy
1:00 AM 54 °F 50 °F 82% 30.09 in 7 mi SW 2.3 mph - -   Scattered Clouds
1:00 AM 53.6 °F 50.0 °F 88% 30.09 in 6.2 mi SSW 4.6 mph - N/A   Partly Cloudy
1:30 AM 51.8 °F 50.0 °F 94% 30.09 in 5.6 mi Calm Calm - N/A   Partly Cloudy
2:00 AM 51.8 °F 51.8 °F 100% 30.09 in 5.0 mi North 3.5 mph - N/A   Partly Cloudy
2:30 AM 48.2 °F 48.2 °F 100% 30.09 in 3.7 mi NE 1.2 mph - N/A   Unknown
3:00 AM 46.4 °F 46.4 °F 100% 30.09 in 3.1 mi Variable 1.2 mph - N/A   Mist
4:00 AM 46.4 °F 46.4 °F 100% 30.09 in 3.1 mi Variable 1.2 mph - N/A   Mist
4:30 AM 46.4 °F 46.4 °F 100% 30.09 in 2.5 mi Variable 1.2 mph - N/A   Mist
5:00 AM 44.6 °F 44.6 °F 100% 30.09 in 1.9 mi Calm Calm - N/A   Partly Cloudy
5:30 AM 44.6 °F 44.6 °F 100% 30.09 in 1.9 mi Variable 1.2 mph - N/A   Partly Cloudy
6:00 AM 46.4 °F 46.4 °F 100% 30.09 in 2.5 mi Calm Calm - N/A   Partly Cloudy
6:30 AM 44.6 °F 44.6 °F 100% 30.09 in 2.5 mi Calm Calm - N/A   Partly Cloudy
7:00 AM 46.4 °F 46.4 °F 100% 30.09 in 3.1 mi Calm Calm - N/A   Mist
7:30 AM 44.6 °F 44.6 °F 100% 30.12 in 5.0 mi Calm Calm - N/A   Unknown
8:00 AM 44.6 °F 44.6 °F 100% 30.12 in - Calm Calm - N/A   Clear
8:30 AM 44.6 °F 44.6 °F 100% 30.12 in 1.9 mi Calm Calm - N/A   Mist
9:00 AM 46.4 °F 46.4 °F 100% 30.12 in 2.5 mi Variable 1.2 mph - N/A   Mist
9:14 AM 48.2 °F 48.2 °F 100% 30.12 in 3.1 mi WSW 1.2 mph - N/A   Mist
9:30 AM 48.2 °F 48.2 °F 100% 30.12 in 5.6 mi Calm Calm - N/A   Unknown
10:00 AM 55.4 °F 50.0 °F 82% 30.12 in - Calm Calm - N/A   Clear
10:30 AM 55.4 °F 51.8 °F 88% 30.12 in - Calm Calm - N/A   Clear
11:00 AM 57.2 °F 50.0 °F 77% 30.15 in - Calm Calm - N/A   Clear
11:30 AM 59.0 °F 50.0 °F 72% 30.12 in - Variable 1.2 mph - N/A   Clear
12:00 PM 60.8 °F 50.0 °F 68% 30.12 in - Variable 2.3 mph - N/A   Clear
12:30 PM 60.8 °F 50.0 °F 68% 30.09 in - South 3.5 mph - N/A   Clear
1:00 PM 64 °F 51 °F 52% 30.08 in 9 mi South 2.3 mph - -   Mostly Cloudy
1:00 PM 62.6 °F 50.0 °F 63% 30.09 in - Variable 1.2 mph - N/A   Clear
1:30 PM 60.8 °F 50.0 °F 68% 30.09 in - Variable 1.2 mph - N/A   Clear
2:00 PM 62.6 °F 50.0 °F 63% 30.06 in - Variable 1.2 mph - N/A   Clear
2:30 PM 62.6 °F 50.0 °F 63% 30.06 in - SSW 4.6 mph - N/A   Clear
3:00 PM 62.6 °F 53.6 °F 72% 30.06 in - SSW 8.1 mph - N/A   Clear
3:30 PM 60.8 °F 51.8 °F 72% 30.04 in - South 10.4 mph - N/A   Clear
4:00 PM 59.0 °F 51.8 °F 77% 30.04 in - South 9.2 mph - N/A   Clear
4:30 PM 59.0 °F 50.0 °F 72% 30.04 in - South 8.1 mph - N/A   Clear
5:00 PM 57.2 °F 50.0 °F 77% 30.04 in - South 6.9 mph - N/A   Clear
6:00 PM 55.4 °F 51.8 °F 88% 30.04 in 5.6 mi South 5.8 mph - N/A   Unknown
6:30 PM 55.4 °F 53.6 °F 94% 30.04 in 4.3 mi South 5.8 mph - N/A   Unknown
7:00 PM 56 °F 52 °F 83% 30.02 in 4 mi South 9.2 mph - -   Mist
7:00 PM 55.4 °F 53.6 °F 94% 30.04 in 3.7 mi South 9.2 mph - N/A   Unknown
7:30 PM 53.6 °F 53.6 °F 100% 30.04 in 3.1 mi SSW 9.2 mph - N/A   Mist
8:00 PM 53.6 °F 53.6 °F 100% 30.04 in 3.1 mi South 6.9 mph - N/A   Mist
8:30 PM 55.4 °F 53.6 °F 94% 30.04 in 3.1 mi South 9.2 mph - N/A   Mist
9:00 PM 53.6 °F 53.6 °F 100% 30.01 in 4.3 mi SSW 8.1 mph - N/A   Unknown
9:30 PM 55.4 °F 53.6 °F 94% 30.01 in 4.3 mi SSW 10.4 mph - N/A   Unknown
10:00 PM 55.4 °F 53.6 °F 94% 30.01 in 5.0 mi SW 6.9 mph - N/A   Unknown
10:30 PM 55.4 °F 53.6 °F 94% 30.01 in 5.0 mi SSW 12.7 mph - N/A   Unknown
11:00 PM 55.4 °F 53.6 °F 94% 30.01 in 5.0 mi SSW 10.4 mph - N/A   Unknown
11:30 PM 55.4 °F 53.6 °F 94% 30.01 in 5.0 mi SW 6.9 mph - N/A   Unknown